Location: Craissac
(45.3000°N, 2.5667°E)
Time: 03:47:15
(UTC+00:00)

Daily predictions for brighter satellites

Satellite Brightness Start Highest point End
(mag) Time Altitude Azimuth Time Altitude Azimuth Time Altitude Azimuth
Cosmos 2322 Rocket 2.3 00:05:15 50° WSW 00:06:34 67° WNW 00:12:11 10° NNE
Okean 1-7 3.8 00:06:47 43° W 00:06:50 43° WNW 00:11:03 10° N
Cosmos 923 Rocket 4.1 00:04:39 10° NNW 00:09:54 60° WSW 00:10:11 59° WSW
Cosmos 1818 4.1 00:04:52 10° NNW 00:10:14 55° NE 00:12:49 29° ESE
USA 267 3.7 00:10:32 39° SW 00:10:32 39° SW 00:16:36 10° WNW
ALOS 2 4.1 00:11:03 25° W 00:11:03 25° W 00:14:16 10° NW
Cosmos 1242 Rocket 4.1 00:08:02 10° N 00:11:04 30° ENE 00:11:04 30° ENE
ATLAS CENTAUR R/B 3.1 00:08:49 10° NNW 00:13:22 37° NE 00:16:20 18° ESE
Cosmos 1782 Rocket 4.1 00:14:27 10° NNW 00:18:18 48° WNW 00:18:18 48° WNW
Cosmos 372 Rocket 3.9 00:19:41 63° SE 00:20:06 67° ESE 00:25:13 10° NNE
ERS-2 4.3 00:18:05 10° NNW 00:20:33 18° WNW 00:20:41 18° WNW
Okean 2 Rocket 3.7 00:16:39 10° N 00:21:03 48° ENE 00:21:37 45° ESE
ADEOS Rocket 3.2 00:20:35 42° WSW 00:21:09 43° W 00:26:35 10° NNW
Cosmos 1953 4.3 00:23:04 10° NNE 00:26:14 22° ENE 00:27:20 19° E
Cosmos 1844 Rocket 2.6 00:21:13 10° NNW 00:26:45 63° WSW 00:27:18 59° SW
Cosmos 1844 3.7 00:22:07 10° NNW 00:27:55 73° WSW 00:28:57 59° S
Meteor 1-21 4.3 00:26:51 55° SSE 00:28:07 75° E 00:33:57 10° NNE
Cosmos 1937 Rocket 3.5 00:29:41 60° SW 00:30:31 73° WNW 00:35:48 10° NNE
Cosmos 2112 Rocket 4.0 00:25:28 10° NNW 00:30:45 61° WSW 00:31:08 59° SW
Cosmos 1758 3.5 00:29:41 10° N 00:33:27 67° ENE 00:33:27 67° ENE
Cosmos 1680 Rocket 3.8 00:29:00 10° NNW 00:34:06 49° WSW 00:34:17 49° WSW
Sich 1 Rocket 3.4 00:31:18 10° N 00:35:44 87° E 00:35:48 85° SE
Cosmos 1674 3.2 00:36:19 54° NE 00:36:19 54° NE 00:39:31 10° NNE
Resurs 1-4 Rocket 3.5 00:33:17 10° NE 00:37:41 26° E 00:39:19 23° ESE
Cosmos 1470 3.6 00:34:13 10° NNW 00:37:14 41° WNW 00:37:14 41° WNW
Okean 2 3.4 00:39:06 76° ENE 00:39:06 76° ENE 00:43:01 10° NNE
SL-08 ROCKET BODY 4.4 00:33:53 10° NNW 00:39:44 64° W 00:40:56 52° SW
Cosmos 2219 Rocket 2.2 00:39:12 54° SSE 00:40:13 66° ESE 00:45:46 10° NNE
CZ-4C R/B 3.6 00:33:18 10° NNW 00:40:15 54° NE 00:48:27 10° ESE
Cosmos 1707 3.1 00:40:53 59° NW 00:40:53 59° NW 00:44:21 10° N
SL-16 R/B 3.7 00:38:30 19° W 00:41:25 30° NW 00:46:22 10° N
NOSS 3-1 (C) 4.2 00:37:44 10° NW 00:45:11 77° NE 00:53:59 10° SE
COSMOS 2428 3.1 00:44:03 44° SSE 00:45:14 51° ESE 00:50:44 10° NE
Cosmos 1437 Rocket 4.0 00:42:32 10° N 00:45:58 31° ENE 00:46:36 29° E
Cosmos 1726 4.5 00:44:03 10° NW 00:45:19 14° WNW 00:45:19 14° WNW
Cosmos 1300 Rocket 4.0 00:42:17 10° NNW 00:46:12 47° W 00:46:12 47° W
ATLAS 3B R/B 3.4 00:40:54 10° NW 00:47:41 39° WSW 00:48:51 37° SW
ASTEX 1 3.7 00:43:40 10° N 00:48:23 51° WNW 00:49:02 48° WSW
MOZ.5/SAFIR/RUBIN 5/SL-8 3.8 00:53:59 53° SE 00:55:02 75° ENE 00:59:46 10° N
Cosmos 1626 2.2 00:55:39 70° N 00:55:39 70° N 00:58:57 10° N
S3M 4.1 00:54:26 40° SSE 00:56:48 70° E 01:03:11 10° NNE
Cosmos 2237 Rocket 3.7 00:57:20 20° SE 00:59:22 25° ESE 01:03:54 10° NE
Cosmos 2333 4.4 01:01:59 43° WSW 01:03:40 62° WNW 01:09:16 10° NNE
KORONAS-FOTON 4.1 01:03:59 53° WNW 01:03:59 53° WNW 01:07:27 10° N
Cosmos 1553 Rocket 4.0 01:02:58 45° SW 01:04:49 67° W 01:10:57 10° N
ADEOS II 3.7 01:01:51 10° NE 01:06:09 25° E 01:08:45 17° SE
Cosmos 405 Rocket 2.5 01:10:48 80° ENE 01:10:48 80° ENE 01:14:27 10° NNE
Cosmos 1300 3.9 01:07:14 10° N 01:10:47 37° ENE 01:11:51 30° ESE
Cosmos 2221 Rocket 3.8 01:10:52 51° WSW 01:11:17 54° WNW 01:15:39 10° N
Cosmos 1386 Rocket 4.3 01:05:51 10° N 01:11:54 81° W 01:14:06 42° S
Okean 1 Rocket 3.0 01:11:25 10° N 01:15:50 80° E 01:16:47 54° SSE
Cosmos 2360 Rocket 3.4 01:13:37 22° W 01:16:14 32° NW 01:21:18 10° N
IDEFIX/ARIANE 42P 4.2 01:13:28 10° NE 01:17:52 26° E 01:20:54 16° SE
Cosmos 1238 Rocket 3.9 01:15:36 10° NNW 01:17:10 25° NW 01:17:10 25° NW
ATLAS 5 CENTAUR R/B 2.7 01:07:14 10° NW 01:18:25 70° SW 01:19:49 43° SSE
Cosmos 1461 3.4 01:16:19 10° NNW 01:20:26 59° NE 01:23:29 18° SE
Cosmos 1908 3.7 01:17:14 10° NNW 01:20:34 46° WNW 01:20:34 46° WNW
Meteor 2-10 Rocket 4.4 01:17:34 10° N 01:23:13 53° ENE 01:27:14 18° SE
Cosmos 2278 Rocket 2.6 01:22:42 10° NNW 01:28:21 62° ENE 01:33:57 10° SE
CZ-2D R/B 2.2 01:23:01 10° NNE 01:28:26 70° ESE 01:30:34 37° S
Cosmos 1867 3.5 01:30:59 43° SSW 01:32:51 82° ESE 01:38:22 10° NE
SME Rocket 2.9 01:32:57 58° SW 01:33:20 61° WSW 01:37:36 10° NNW
Gblst 52 Del rocket 4.4 01:30:00 22° W 01:33:51 67° NNW 01:39:22 10° ENE
Cosmos 1048 Rocket 3.8 01:29:16 10° NNW 01:34:27 75° WSW 01:36:29 37° S
Cosmos 2333 Rocket 3.1 01:33:18 26° WSW 01:35:51 39° NW 01:41:10 10° NNE
Cosmos 1125 Rocket 3.5 01:37:42 40° S 01:39:35 79° ESE 01:44:49 10° NNE
Cosmos 1745 Rocket 4.3 01:35:12 10° NNW 01:41:13 51° W 01:43:37 34° SW
SL-16 R/B 2.5 01:37:47 21° SSE 01:42:05 88° ENE 01:48:21 10° NNW
YAOGAN 11 4.3 01:39:55 27° SSE 01:42:15 69° ENE 01:46:42 10° N
SL-16 R/B 4.3 01:38:39 10° SE 01:42:26 19° E 01:46:13 10° ENE
Cosmos 2322 4.4 01:40:26 28° WSW 01:42:59 46° WNW 01:48:30 10° NNE
Thor Agena Rocket 4.2 01:39:04 10° N 01:44:04 46° WNW 01:46:03 31° WSW
Cosmos 1674 Rocket 4.4 01:43:30 32° W 01:44:18 35° WNW 01:48:18 10° N
Cosmos 1943 Rocket 4.3 01:40:11 10° N 01:44:59 27° NE 01:49:46 10° ESE
EO 1 Del DPAF 4.2 01:44:12 10° NNE 01:47:30 36° E 01:48:38 28° SE
Cosmos 2298 Rocket 4.0 01:45:28 38° SSW 01:47:34 87° WNW 01:52:55 10° NNE
USA 290 3.0 01:48:51 39° WNW 01:48:56 39° WNW 01:52:01 10° N
Cosmos 1980 3.9 01:46:55 32° S 01:49:34 66° ESE 01:55:10 10° NNE
Cosmos 2322 Rocket 4.5 01:48:48 10° WNW 01:51:45 14° NW 01:54:43 10° N
ATLAS CENTAUR R/B 2.3 01:47:45 10° NW 01:52:10 36° WSW 01:52:17 36° WSW
SL-14 R/B 3.8 01:56:23 37° WSW 01:57:05 41° WNW 02:00:49 10° N
Cosmos 494 Rocket 4.1 01:52:13 10° NNW 01:57:11 51° WSW 01:59:07 33° SSW
AQUA 3.8 01:52:33 10° NNE 01:57:20 83° ESE 01:59:34 32° S
USA 229 DEB 3.9 01:50:43 10° NW 01:58:08 87° SW 02:06:01 10° SE
USA 229 3.9 01:50:49 10° NW 01:58:13 88° SW 02:06:06 10° SE
OE (NEXTSAT) 4.1 01:57:24 40° WNW 01:58:29 88° N 02:01:49 10° E
Cosmos 1455 Rocket 3.1 01:55:53 10° N 02:00:23 82° E 02:03:00 25° SSE
Cosmos 1953 3.2 01:59:02 10° NNW 02:02:35 30° W 02:02:56 30° W
GP-B 3.8 01:59:28 10° NNW 02:03:35 37° W 02:04:47 31° WSW
NOSS 2-2 (C) 4.3 02:00:14 10° NW 02:05:24 88° WSW 02:12:45 10° SE
Helios 1A 3.1 02:02:52 19° SSE 02:05:47 76° ENE 02:10:00 10° N
Cosmos 371 Rocket 3.4 02:04:37 33° SW 02:06:44 67° WNW 02:11:36 10° NNE
MSX 4.3 02:01:41 10° NNE 02:07:21 55° E 02:11:46 17° S
UNK 3.7 02:07:23 30° S 02:09:31 60° WSW 02:14:05 10° NNW
NPP 3.8 02:04:54 10° N 02:10:14 63° WNW 02:13:05 27° SW
Meteor 1-28 Rocket 3.1 02:10:52 27° S 02:12:48 84° WSW 02:16:34 10° NNW
Cosmos 1975 Rocket 3.0 02:11:29 32° SSW 02:13:28 73° W 02:17:55 10° N
CZ-4 R/B 4.4 02:09:27 10° N 02:13:52 42° WNW 02:15:53 27° WSW
USA 306 3.6 02:13:37 29° S 02:15:07 40° SE 02:19:02 10° ENE
USA 307 3.8 02:13:44 26° S 02:15:14 35° SE 02:19:04 10° ENE
Resurs 1-4 Rocket 2.7 02:12:41 10° N 02:17:40 44° WNW 02:20:23 24° SW
NOSS 2-2 (E) 4.5 02:13:09 10° NW 02:18:29 62° SW 02:25:58 10° SSE
Cosmos 2315 Rocket 4.4 02:18:05 24° SW 02:21:41 49° WNW 02:27:52 10° N
Cosmos 1437 Rocket 4.4 02:19:18 10° NW 02:21:54 18° W 02:21:54 18° W
SAR-Lupe-2 4.1 02:20:29 10° N 02:23:54 43° WNW 02:25:09 30° WSW
Cosmos 2219 Rocket 3.8 02:20:54 13° W 02:24:40 23° NW 02:29:06 10° N
NOSS 3-1 (A) 4.2 02:17:18 10° NW 02:24:43 55° WSW 02:33:18 10° SSE
Helios 1B rocket 4.1 02:21:53 10° NE 02:25:26 28° E 02:28:57 10° SSE
Cosmos 2074 Rocket 4.1 02:19:19 10° N 02:25:39 84° E 02:31:58 10° S
NOSS 0 Rocket 4.2 02:22:49 23° SW 02:26:46 58° WNW 02:32:57 10° NNE
MOS 1 Rocket 3.4 02:26:10 25° SSW 02:28:17 46° W 02:32:25 10° NNW
CZ-4C R/B 3.3 02:21:54 10° NW 02:28:59 47° WSW 02:37:04 10° S
COSMOS 2428 4.0 02:26:02 15° WSW 02:29:45 29° NW 02:34:41 10° N
SeaSat 1 4.4 02:27:14 10° NE 02:31:04 22° ESE 02:34:53 10° SSE
Cosmos 304 Rocket 3.9 02:30:28 24° SW 02:33:16 61° WNW 02:38:04 10° NNE
Cosmos 2184 Rocket 4.0 02:27:12 10° N 02:33:32 89° W 02:39:46 10° S
CZ-2C R/B 4.4 02:30:20 10° NE 02:34:37 26° E 02:38:48 10° SSE
Cosmos 1269 Rocket 4.0 02:32:24 10° NNW 02:37:43 87° ENE 02:42:59 10° SSE
Cosmos 1455 2.1 02:38:25 10° N 02:42:08 88° ENE 02:45:51 10° S
Cosmos 2237 Rocket 2.6 02:39:10 20° SW 02:43:02 54° WNW 02:48:39 10° NNE
Cosmos 1025 Rocket 3.6 02:41:57 22° SW 02:44:24 42° WNW 02:48:33 10° N
USA 308 3.1 02:42:41 22° SSW 02:45:14 59° SE 02:49:22 10° ENE
BREEZE-M DEB (TANK) 4.2 02:33:53 10° W 02:45:19 64° NNW 02:48:50 10° ENE
Cosmos 1544 Rocket 3.6 02:41:24 10° NNW 02:45:48 63° W 02:49:52 12° S
ADEOS II 2.6 02:41:01 10° N 02:46:01 46° WNW 02:49:41 18° SW
Cosmos 2084 Rocket 4.0 02:43:24 17° S 02:46:01 41° ESE 02:49:37 10° NE
Cosmos 1300 4.5 02:43:42 10° NW 02:46:02 16° W 02:46:40 15° W
Cosmos 1703 4.5 02:43:02 10° SSE 02:46:43 40° E 02:50:25 10° NNE
Lacrosse 5 3.0 02:48:06 13° S 02:52:08 36° SE 02:56:46 10° ENE
Cosmos 2297 4.2 02:48:21 10° NNW 02:54:06 65° ENE 02:59:47 10° SE
IDEFIX/ARIANE 42P 3.1 02:52:36 10° N 02:57:35 44° WNW 03:01:42 15° SW
Cosmos 1461 4.5 02:56:21 10° WNW 02:59:00 16° WSW 02:59:38 16° WSW
CZ-2D R/B 3.9 03:04:11 10° NNW 03:07:54 19° WNW 03:11:34 10° WSW
Cosmos 2278 Rocket 3.4 03:07:45 10° NW 03:11:55 21° W 03:16:03 10° SSW
USA 305 2.9 03:09:06 14° WSW 03:12:43 77° NW 03:16:55 10° NE
ERBS 2.0 03:14:11 15° SW 03:16:40 89° NNW 03:19:45 10° NE
Nadezhda 1 Rocket 4.2 03:15:54 10° SSW 03:22:11 60° WNW 03:28:28 10° N
FENGYUN 3A 3.7 03:19:53 10° NNE 03:25:18 85° ESE 03:30:41 10° SSW
SL-16 R/B 2.3 03:20:16 10° SSW 03:25:54 70° WNW 03:31:36 10° NNE
Cosmos 2341 Rocket 4.2 03:19:44 10° N 03:26:09 81° E 03:32:33 10° S
SL-16 R/B 4.1 03:22:56 10° SW 03:26:29 16° W 03:30:04 10° NW
Cosmos 1943 Rocket 2.3 03:23:32 10° NNW 03:29:05 56° WSW 03:34:35 10° S
COSMOS 2455 3.2 03:24:34 10° SSW 03:30:30 65° ESE 03:36:29 10° NE
Cosmos 2369 Rocket 2.8 03:25:43 10° NNW 03:31:18 64° ENE 03:36:49 10° SE
Meteor 2-1 Rocket 4.5 03:26:03 10° N 03:31:55 80° E 03:37:37 10° SSE
ARIANE 5 R/B 2.7 03:34:17 10° NNE 03:39:25 80° ESE 03:44:26 10° SSW
CBERS-1 4.5 03:34:43 10° N 03:39:36 46° WNW 03:44:27 10° SW
